QPF
0.01 0.02 0.05 0.06 0.05 0.05 0.07 0.07 0.06 0.07 0.07 0.07 0.06 0.06 0.06 0.06 0.06 0.04 0.03 0.03 0.03 0.03 0.04 0.03 0.04 0.03 0.05 0.05 0.05 0.05 0.06 0.06 0.06 0.07 0.10 0.12 0.12 0.11
0.01 0.02 0.03 0.04 0.05 0.05 0.06 0.06 0.05 0.07 0.08 0.07 0.05 0.06 0.07 0.07 0.05 0.03 0.03 0.03 0.03 0.02 0.03 0.03 0.03 0.02 0.02 0.02 0.02 0.02 0.04 0.04 0.04 0.05 0.07 0.09 0.11 0.11
0.01 0.01 0.01 0.01 0.04 0.04 0.04 0.04 0.05 0.06 0.09 0.09 0.06 0.05 0.06 0.08 0.06 0.05 0.04 0.03 0.02 0.03 0.04 0.04 0.03 0.02 0.01 0.01 0.02 0.01 0.01 0.02 0.03 0.04 0.05 0.05 0.06 0.07
0.01 0.01 0.01 0.01 0.04 0.06 0.06 0.06 0.07 0.06 0.07 0.10 0.09 0.06 0.05 0.06 0.05 0.04 0.04 0.04 0.03 0.04 0.04 0.04 0.03 0.02 0.01 0.01 0.01 0.02 0.01 0.01 0.02 0.03 0.03 0.03 0.03 0.03
0.01 0.02 0.02 0.02 0.03 0.05 0.06 0.07 0.10 0.09 0.08 0.09 0.09 0.06 0.05 0.03 0.03 0.04 0.04 0.05 0.04 0.04 0.04 0.04 0.03 0.02 0.01 0.01 0.01 0.01 0.01 0.01 0.02 0.02 0.03 0.02 0.01 0.01
0.02 0.02 0.02 0.01 0.01 0.03 0.04 0.07 0.09 0.09 0.08 0.07 0.08 0.06 0.04 0.03 0.03 0.03 0.03 0.05 0.07 0.04 0.03 0.03 0.03 0.02 0.01 0.01 0.01 0.01 0.00 0.01 0.01 0.01 0.02 0.02 0.01 0.01
0.01 0.01 0.01 0.01 0.01 0.02 0.02 0.03 0.05 0.05 0.07 0.06 0.06 0.05 0.04 0.02 0.02 0.03 0.02 0.03 0.05 0.04 0.02 0.02 0.01 0.01 0.01 0.01 0.01 0.00 0.00 0.01 0.01 0.01 0.01 0.01 0.02 0.01
0.01 0.01 0.01 0.01 0.01 0.01 0.01 0.01 0.01 0.03 0.06 0.05 0.04 0.03 0.02 0.01 0.01 0.02 0.03 0.03 0.03 0.03 0.03 0.02 0.01 0.01 0.00 0.01 0.01 0.00 0.00 0.01 0.01 0.02 0.02 0.02 0.02 0.02
0.01 0.01 0.01 0.01 0.01 0.01 0.01 0.00 0.01 0.01 0.02 0.03 0.04 0.03 0.01 0.01 0.01 0.02 0.03 0.04 0.04 0.03 0.03 0.03 0.02 0.01 0.00 0.00 0.00 0.00 0.00 0.00 0.01 0.01 0.01 0.01 0.01 0.02
0.01 0.01 0.01 0.01 0.01 0.01 0.01 0.01 0.01 0.01 0.01 0.01 0.02 0.03 0.02 0.01 0.01 0.02 0.03 0.03 0.03 0.03 0.03 0.03 0.02 0.01 0.01 0.01 0.01 0.00 0.00 0.00 0.00 0.01 0.01 0.01 0.02 0.02
0.01 0.01 0.01 0.01 0.02 0.02 0.01 0.01 0.01 0.01 0.01 0.01 0.01 0.03 0.03 0.01 0.01 0.02 0.02 0.03 0.03 0.02 0.02 0.02 0.01 0.01 0.00 0.00 0.01 0.00 0.01 0.01 0.01 0.01 0.01 0.01 0.02 0.04
0.01 0.01 0.01 0.01 0.01 0.01 0.01 0.01 0.01 0.01 0.01 0.01 0.01 0.03 0.03 0.02 0.01 0.02 0.03 0.03 0.03 0.03 0.02 0.01 0.00 0.00 0.01 0.00 0.00 0.00 0.00 0.01 0.01 0.02 0.02 0.02 0.02 0.03
0.01 0.01 0.01 0.01 0.00 0.01 0.01 0.01 0.02 0.02 0.02 0.03 0.03 0.03 0.03 0.02 0.01 0.01 0.02 0.02 0.02 0.02 0.01 0.01 0.01 0.01 0.01 0.01 0.00 0.00 0.00 0.01 0.01 0.01 0.02 0.02 0.03 0.03
0.01 0.01 0.01 0.00 0.00 0.00 0.00 0.01 0.01 0.02 0.02 0.03 0.03 0.02 0.03 0.02 0.02 0.02 0.02 0.01 0.02 0.02 0.01 0.01 0.02 0.02 0.01 0.01 0.01 0.01 0.01 0.01 0.01 0.01 0.01 0.02 0.03 0.03
0.01 0.01 0.01 0.01 0.00 0.00 0.00 0.00 0.01 0.01 0.02 0.03 0.02 0.02 0.02 0.03 0.02 0.02 0.02 0.02 0.02 0.02 0.02 0.01 0.02 0.02 0.02 0.02 0.02 0.02 0.01 0.01 0.01 0.01 0.01 0.01 0.02 0.02
0.01 0.01 0.01 0.01 0.01 0.00 0.00 0.01 0.01 0.01 0.01 0.02 0.02 0.01 0.02 0.03 0.03 0.03 0.02 0.02 0.02 0.01 0.01 0.01 0.01 0.02 0.02 0.02 0.02 0.01 0.01 0.01 0.01 0.01 0.01 0.01 0.01 0.02
0.01 0.01 0.01 0.01 0.01 0.01 0.01 0.01 0.01 0.02 0.02 0.02 0.02 0.02 0.02 0.03 0.03 0.03 0.02 0.02 0.01 0.01 0.01 0.01 0.01 0.02 0.02 0.02 0.02 0.01 0.01 0.02 0.02 0.02 0.02 0.01 0.01 0.01
0.01 0.01 0.02 0.02 0.02 0.02 0.02 0.02 0.02 0.02 0.02 0.02 0.02 0.03 0.03 0.03 0.03 0.04 0.03 0.02 0.02 0.01 0.01 0.01 0.02 0.02 0.02 0.02 0.02 0.02 0.02 0.02 0.02 0.02 0.02 0.02 0.02 0.03
0.01 0.01 0.02 0.03 0.03 0.03 0.03 0.03 0.03 0.03 0.02 0.02 0.02 0.02 0.02 0.02 0.03 0.05 0.05 0.03 0.02 0.02 0.02 0.02 0.02 0.03 0.03 0.03 0.03 0.02 0.03 0.02 0.02 0.02 0.02 0.02 0.02 0.04
0.02 0.02 0.02 0.02 0.03 0.03 0.03 0.03 0.03 0.03 0.02 0.02 0.02 0.02 0.02 0.03 0.04 0.05 0.05 0.04 0.03 0.02 0.02 0.02 0.02 0.02 0.02 0.02 0.02 0.01 0.02 0.02 0.02 0.01 0.01 0.01 0.02 0.02
0.02 0.02 0.02 0.01 0.01 0.02 0.02 0.02 0.02 0.02 0.02 0.02 0.02 0.02 0.02 0.03 0.04 0.04 0.04 0.04 0.05 0.04 0.04 0.04 0.03 0.02 0.03 0.02 0.02 0.01 0.01 0.01 0.01 0.01 0.01 0.01 0.01 0.01
0.01 0.01 0.01 0.01 0.01 0.01 0.02 0.02 0.01 0.01 0.01 0.01 0.01 0.02 0.02 0.02 0.03 0.03 0.04 0.04 0.04 0.04 0.04 0.04 0.04 0.03 0.04 0.04 0.03 0.02 0.01 0.01 0.01 0.01 0.01 0.00 0.01 0.01
0.01 0.01 0.01 0.02 0.02 0.01 0.01 0.01 0.01 0.01 0.01 0.01 0.01 0.01 0.01 0.02 0.02 0.03 0.03 0.04 0.04 0.03 0.02 0.02 0.02 0.03 0.04 0.04 0.04 0.03 0.02 0.01 0.01 0.01 0.01 0.00 0.00 0.00
MSLP
1016.42 1016.32 1016.21 1016.08 1015.90 1015.63 1015.28 1014.84 1014.34 1013.80 1013.26 1012.74 1012.27 1011.87 1011.54 1011.25 1011.01 1010.80 1010.62 1010.46 1010.34 1010.25 1010.23 1010.26 1010.36 1010.51 1010.70 1010.93 1011.16 1011.38 1011.57 1011.73 1011.86 1011.95 1012.00 1012.04 1012.05 1012.05
1015.98 1015.84 1015.72 1015.57 1015.39 1015.14 1014.81 1014.42 1013.97 1013.49 1013.00 1012.53 1012.10 1011.72 1011.38 1011.08 1010.81 1010.58 1010.38 1010.21 1010.08 1010.01 1010.00 1010.07 1010.20 1010.39 1010.62 1010.86 1011.10 1011.31 1011.47 1011.58 1011.63 1011.64 1011.60 1011.52 1011.42 1011.31
1015.39 1015.22 1015.07 1014.92 1014.74 1014.51 1014.24 1013.90 1013.53 1013.12 1012.71 1012.30 1011.91 1011.56 1011.22 1010.91 1010.62 1010.35 1010.11 1009.91 1009.76 1009.68 1009.67 1009.75 1009.90 1010.11 1010.36 1010.63 1010.87 1011.07 1011.22 1011.29 1011.28 1011.20 1011.07 1010.88 1010.67 1010.44
1014.70 1014.50 1014.34 1014.18 1014.02 1013.82 1013.60 1013.33 1013.03 1012.70 1012.37 1012.03 1011.69 1011.37 1011.04 1010.72 1010.41 1010.11 1009.82 1009.58 1009.39 1009.28 1009.26 1009.32 1009.47 1009.69 1009.95 1010.22 1010.47 1010.67 1010.80 1010.84 1010.79 1010.66 1010.44 1010.17 1009.85 1009.51
1013.97 1013.76 1013.58 1013.43 1013.28 1013.12 1012.94 1012.73 1012.49 1012.24 1011.97 1011.69 1011.40 1011.10 1010.80 1010.48 1010.15 1009.82 1009.51 1009.23 1009.00 1008.86 1008.80 1008.84 1008.96 1009.16 1009.41 1009.68 1009.92 1010.12 1010.24 1010.27 1010.20 1010.03 1009.77 1009.43 1009.04 1008.62
1013.25 1013.03 1012.86 1012.71 1012.58 1012.43 1012.28 1012.11 1011.91 1011.70 1011.48 1011.24 1010.99 1010.72 1010.44 1010.13 1009.81 1009.47 1009.14 1008.84 1008.60 1008.42 1008.32 1008.32 1008.41 1008.58 1008.80 1009.04 1009.27 1009.46 1009.58 1009.62 1009.55 1009.38 1009.12 1008.76 1008.34 1007.88
1012.57 1012.35 1012.18 1012.04 1011.91 1011.77 1011.62 1011.46 1011.28 1011.09 1010.88 1010.66 1010.44 1010.20 1009.94 1009.66 1009.36 1009.04 1008.73 1008.43 1008.17 1007.98 1007.85 1007.81 1007.86 1007.98 1008.15 1008.36 1008.57 1008.76 1008.89 1008.95 1008.91 1008.78 1008.55 1008.22 1007.82 1007.38
1011.93 1011.72 1011.55 1011.41 1011.27 1011.12 1010.96 1010.78 1010.58 1010.37 1010.16 1009.95 1009.73 1009.51 1009.29 1009.05 1008.79 1008.52 1008.25 1007.98 1007.74 1007.54 1007.39 1007.32 1007.32 1007.39 1007.52 1007.69 1007.88 1008.06 1008.21 1008.30 1008.33 1008.26 1008.11 1007.86 1007.53 1007.14
1011.31 1011.11 1010.94 1010.79 1010.63 1010.46 1010.26 1010.04 1009.81 1009.57 1009.33 1009.10 1008.89 1008.69 1008.50 1008.31 1008.11 1007.91 1007.69 1007.48 1007.27 1007.09 1006.94 1006.84 1006.81 1006.83 1006.91 1007.04 1007.21 1007.39 1007.56 1007.71 1007.81 1007.84 1007.79 1007.65 1007.43 1007.15
1010.69 1010.49 1010.32 1010.15 1009.97 1009.76 1009.52 1009.25 1008.97 1008.69 1008.42 1008.17 1007.96 1007.77 1007.62 1007.48 1007.35 1007.21 1007.07 1006.92 1006.76 1006.61 1006.47 1006.36 1006.30 1006.29 1006.33 1006.43 1006.58 1006.77 1006.97 1007.17 1007.35 1007.48 1007.56 1007.55 1007.47 1007.32
1010.04 1009.84 1009.66 1009.47 1009.26 1009.02 1008.73 1008.42 1008.09 1007.77 1007.46 1007.20 1006.98 1006.81 1006.69 1006.60 1006.53 1006.46 1006.39 1006.30 1006.19 1006.07 1005.95 1005.85 1005.77 1005.74 1005.76 1005.84 1005.98 1006.18 1006.41 1006.67 1006.93 1007.16 1007.35 1007.48 1007.54 1007.53
1009.36 1009.14 1008.95 1008.74 1008.51 1008.23 1007.91 1007.56 1007.20 1006.84 1006.52 1006.24 1006.02 1005.86 1005.77 1005.72 1005.69 1005.68 1005.66 1005.62 1005.56 1005.47 1005.37 1005.28 1005.20 1005.17 1005.18 1005.26 1005.40 1005.61 1005.88 1006.18 1006.50 1006.82 1007.10 1007.34 1007.52 1007.64
1008.64 1008.41 1008.19 1007.97 1007.71 1007.41 1007.07 1006.70 1006.32 1005.95 1005.61 1005.33 1005.11 1004.96 1004.88 1004.86 1004.86 1004.88 1004.89 1004.89 1004.85 1004.80 1004.72 1004.64 1004.58 1004.56 1004.58 1004.67 1004.83 1005.06 1005.35 1005.68 1006.05 1006.42 1006.77 1007.08 1007.35 1007.57
1007.90 1007.65 1007.41 1007.17 1006.89 1006.58 1006.23 1005.85 1005.47 1005.09 1004.76 1004.48 1004.27 1004.13 1004.05 1004.03 1004.05 1004.08 1004.10 1004.11 1004.09 1004.05 1004.00 1003.94 1003.91 1003.91 1003.96 1004.07 1004.26 1004.51 1004.82 1005.17 1005.55 1005.94 1006.32 1006.67 1006.99 1007.26
1007.16 1006.89 1006.63 1006.37 1006.08 1005.76 1005.40 1005.03 1004.65 1004.29 1003.96 1003.69 1003.49 1003.35 1003.27 1003.25 1003.25 1003.27 1003.29 1003.30 1003.28 1003.25 1003.22 1003.20 1003.19 1003.23 1003.32 1003.47 1003.69 1003.96 1004.29 1004.65 1005.02 1005.41 1005.77 1006.12 1006.44 1006.72
1006.46 1006.16 1005.88 1005.60 1005.30 1004.97 1004.61 1004.24 1003.87 1003.52 1003.21 1002.95 1002.75 1002.61 1002.53 1002.49 1002.48 1002.47 1002.47 1002.47 1002.45 1002.43 1002.41 1002.42 1002.46 1002.54 1002.68 1002.88 1003.13 1003.43 1003.76 1004.11 1004.47 1004.82 1005.15 1005.46 1005.74 1006.01
1005.79 1005.48 1005.19 1004.88 1004.57 1004.23 1003.87 1003.50 1003.14 1002.80 1002.50 1002.25 1002.05 1001.91 1001.81 1001.75 1001.71 1001.69 1001.66 1001.64 1001.61 1001.60 1001.61 1001.64 1001.72 1001.86 1002.04 1002.29 1002.57 1002.90 1003.23 1003.57 1003.90 1004.20 1004.47 1004.72 1004.95 1005.17
1005.19 1004.88 1004.57 1004.25 1003.92 1003.57 1003.21 1002.84 1002.48 1002.14 1001.84 1001.59 1001.39 1001.23 1001.12 1001.04 1000.97 1000.92 1000.88 1000.84 1000.81 1000.80 1000.82 1000.88 1001.00 1001.17 1001.41 1001.69 1002.00 1002.34 1002.67 1003.00 1003.29 1003.54 1003.76 1003.94 1004.10 1004.27
1004.67 1004.36 1004.06 1003.74 1003.40 1003.04 1002.66 1002.28 1001.92 1001.57 1001.26 1001.00 1000.78 1000.61 1000.48 1000.37 1000.28 1000.21 1000.14 1000.09 1000.05 1000.04 1000.07 1000.15 1000.29 1000.49 1000.75 1001.06 1001.39 1001.73 1002.06 1002.36 1002.62 1002.83 1003.00 1003.13 1003.23 1003.34
1004.24 1003.97 1003.68 1003.37 1003.03 1002.67 1002.28 1001.89 1001.50 1001.14 1000.81 1000.52 1000.28 1000.09 999.93 999.80 999.68 999.58 999.49 999.42 999.37 999.35 999.38 999.46 999.61 999.81 1000.08 1000.38 1000.71 1001.05 1001.36 1001.64 1001.88 1002.05 1002.18 1002.27 1002.34 1002.41
1003.94 1003.72 1003.47 1003.18 1002.86 1002.49 1002.09 1001.69 1001.28 1000.89 1000.53 1000.21 999.94 999.71 999.52 999.35 999.21 999.08 998.96 998.86 998.79 998.75 998.76 998.83 998.95 999.14 999.38 999.67 999.97 1000.28 1000.58 1000.84 1001.05 1001.20 1001.31 1001.39 1001.44 1001.49
1003.79 1003.63 1003.44 1003.19 1002.89 1002.54 1002.14 1001.72 1001.29 1000.87 1000.47 1000.11 999.80 999.53 999.29 999.09 998.90 998.74 998.59 998.46 998.35 998.28 998.25 998.28 998.36 998.50 998.70 998.94 999.20 999.48 999.74 999.97 1000.17 1000.31 1000.42 1000.49 1000.55 1000.60
1003.80 1003.72 1003.59 1003.40 1003.14 1002.80 1002.41 1001.98 1001.53 1001.08 1000.65 1000.25 999.89 999.57 999.28 999.03 998.81 998.60 998.41 998.23 998.09 997.97 997.89 997.86 997.88 997.96 998.10 998.27 998.48 998.71 998.93 999.13 999.31 999.46 999.57 999.66 999.73 999.80
Thickness
5588 5587 5585 5584 5583 5582 5582 5582 5582 5583 5586 5588 5590 5594 5597 5600 5603 5606 5608 5611 5613 5616 5618 5620 5622 5624 5625 5627 5628 5629 5630 5631 5631 5633 5634 5635 5637 5638
5585 5583 5581 5580 5579 5578 5578 5577 5577 5578 5580 5582 5584 5587 5589 5593 5595 5598 5600 5603 5606 5609 5611 5614 5615 5618 5619 5621 5622 5623 5624 5625 5626 5627 5629 5630 5631 5633
5582 5580 5579 5577 5576 5576 5575 5574 5573 5572 5574 5577 5577 5580 5582 5585 5588 5590 5592 5596 5599 5602 5605 5607 5609 5612 5613 5615 5616 5618 5619 5620 5621 5622 5623 5624 5626 5627
5578 5576 5575 5574 5572 5572 5572 5571 5571 5570 5571 5572 5573 5574 5576 5578 5580 5583 5586 5589 5592 5596 5598 5601 5604 5606 5608 5609 5611 5612 5614 5615 5616 5617 5618 5619 5620 5621
5575 5573 5572 5570 5570 5569 5569 5569 5568 5568 5568 5568 5569 5569 5571 5572 5574 5577 5580 5582 5585 5589 5593 5595 5598 5600 5601 5603 5605 5607 5608 5610 5611 5612 5614 5614 5615 5616
5572 5570 5569 5568 5567 5567 5567 5566 5566 5565 5565 5564 5565 5565 5566 5568 5569 5571 5574 5576 5580 5584 5587 5590 5592 5594 5596 5598 5600 5601 5603 5604 5605 5607 5609 5610 5610 5611
5570 5569 5568 5567 5566 5565 5565 5564 5563 5563 5562 5562 5562 5562 5562 5564 5565 5567 5570 5571 5575 5577 5581 5583 5585 5588 5590 5593 5595 5597 5598 5599 5601 5602 5604 5605 5606 5607
5568 5567 5566 5566 5565 5564 5563 5563 5562 5560 5560 5559 5559 5559 5560 5561 5562 5563 5565 5567 5571 5573 5575 5578 5580 5583 5586 5589 5591 5593 5595 5596 5597 5598 5599 5600 5601 5602
5566 5565 5565 5565 5564 5563 5562 5561 5560 5559 5558 5558 5557 5558 5558 5559 5559 5560 5561 5564 5566 5568 5569 5574 5576 5579 5583 5585 5587 5589 5590 5592 5593 5594 5595 5595 5596 5597
5565 5564 5563 5563 5562 5560 5560 5559 5559 5558 5557 5557 5557 5557 5557 5557 5556 5558 5558 5559 5561 5563 5564 5568 5572 5575 5579 5582 5584 5585 5586 5587 5588 5589 5590 5591 5592 5592
5565 5564 5562 5561 5560 5558 5557 5557 5557 5557 5557 5556 5556 5556 5555 5555 5554 5554 5555 5557 5560 5562 5561 5563 5568 5571 5575 5578 5580 5581 5582 5583 5584 5585 5585 5586 5587 5587
5565 5564 5562 5560 5558 5556 5555 5554 5554 5555 5554 5555 5554 5554 5554 5554 5553 5553 5554 5555 5557 5559 5560 5559 5563 5565 5570 5573 5575 5576 5577 5578 5579 5580 5580 5581 5581 5581
5563 5563 5561 5559 5557 5555 5553 5552 5552 5552 5551 5551 5552 5553 5553 5553 5553 5552 5552 5553 5554 5556 5557 5555 5558 5560 5562 5566 5568 5570 5571 5573 5574 5575 5575 5576 5576 5576
5561 5561 5559 5558 5556 5555 5553 5552 5551 5549 5549 5550 5550 5551 5552 5552 5552 5551 5551 5550 5551 5553 5554 5553 5554 5555 5556 5559 5562 5564 5565 5567 5568 5570 5571 5571 5571 5572
5559 5558 5557 5556 5555 5554 5553 5552 5550 5549 5548 5547 5548 5549 5549 5548 5548 5548 5548 5548 5548 5549 5550 5549 5550 5551 5551 5554 5556 5558 5560 5562 5563 5564 5565 5566 5568 5567
5557 5556 5555 5554 5553 5552 5551 5550 5549 5547 5546 5546 5546 5546 5545 5544 5545 5544 5545 5545 5545 5548 5548 5548 5547 5547 5548 5549 5550 5553 5554 5556 5558 5559 5559 5561 5562 5563
5553 5552 5552 5552 5551 5550 5549 5548 5546 5545 5543 5542 5541 5541 5541 5541 5541 5540 5539 5540 5541 5543 5545 5545 5544 5543 5544 5544 5546 5548 5550 5551 5553 5553 5553 5555 5558 5558
5549 5549 5548 5547 5546 5546 5545 5545 5543 5542 5540 5539 5537 5537 5537 5537 5537 5537 5536 5536 5537 5538 5539 5540 5539 5538 5539 5542 5541 5543 5545 5546 5547 5547 5547 5548 5553 5555
5546 5545 5544 5543 5542 5541 5540 5539 5538 5537 5536 5534 5534 5533 5532 5532 5532 5532 5532 5532 5533 5534 5534 5534 5533 5533 5536 5539 5543 5538 5539 5541 5541 5542 5542 5544 5547 5550
5543 5542 5541 5539 5537 5536 5535 5534 5533 5532 5531 5530 5529 5528 5527 5527 5527 5527 5527 5527 5528 5529 5529 5529 5528 5529 5530 5532 5535 5536 5534 5535 5536 5537 5539 5539 5541 5542
5543 5540 5537 5535 5533 5531 5530 5528 5527 5526 5525 5524 5523 5523 5522 5521 5521 5522 5522 5521 5520 5522 5523 5525 5525 5523 5523 5523 5525 5529 5530 5528 5529 5530 5532 5533 5535 5536
5540 5537 5534 5531 5529 5526 5525 5523 5522 5520 5519 5518 5517 5516 5516 5515 5516 5516 5517 5517 5517 5517 5518 5519 5518 5517 5517 5518 5521 5522 5523 5524 5523 5523 5524 5526 5528 5531
5536 5533 5530 5526 5524 5521 5518 5517 5515 5513 5511 5510 5509 5509 5509 5508 5509 5510 5510 5511 5511 5511 5512 5512 5512 5511 5511 5512 5513 5514 5515 5516 5517 5518 5519 5520 5520 5521